This demonstration page uses our WeatherBlox Daily Observations layout. Learn more.

Left ArrowRight Arrow

34.02893, -84.19858

Hourly Observations for March 10, 2022

Temp ( °F °C ) Dew Point ( °F °C ) Humidity (%) Winds ( mph kmh ) Pressure ( in mb ) Visibility ( mi km ) Precip ( " mm )
12:53 am 00:53 Clear 46 7.8 43 6.1 89 89 Calm 29.97 1015 10 16 0.00 0.00
1:53 am 01:53 Clear 46 7.8 42 5.6 86 86 Calm 29.97 1015 10 16 0.00 0.00
2:53 am 02:53 Clear 45 7.2 43 6.1 93 93 Calm 29.94 1014 10 16 0.00 0.00
3:53 am 03:53 Clear 44 6.7 42 5.6 93 93 Calm 29.95 1014 10 16 0.00 0.00
4:53 am 04:53 Clear 44 6.7 42 5.6 93 93 Calm 29.97 1015 10 16 0.00 0.00
5:53 am 05:53 Mostly Cloudy 44 6.7 42 5.6 93 93 NW 3 6 30.00 1016 10 16 0.00 0.00
6:53 am 06:53 Clear 44 6.7 42 5.6 93 93 Calm 30.00 1016 10 16 0.00 0.00
7:53 am 07:53 Sunny 44 6.7 41 5 89 89 N 5 7 30.01 1016 10 16 0.00 0.00
8:36 am 08:36 Partly Cloudy 48 8.9 45 7.2 89 89 Calm 30.04 1017 10 16 0.00 0.00
8:53 am 08:53 Partly Cloudy 48 8.9 45 7.2 89 89 VRB 3 6 30.04 1017 10 16 0.00 0.00
9:53 am 09:53 Mostly Cloudy 53 11.7 47 8.3 80 80 Calm 30.04 1017 10 16 0.00 0.00
10:53 am 10:53 Mostly Cloudy 57 13.9 47 8.3 69 69 VRB 3 6 30.05 1018 10 16 0.00 0.00
11:33 am 11:33 Mostly Cloudy 58 14.4 47 8.3 67 67 Calm 30.03 1017 10 16 0.00 0.00
11:50 am 11:50 Mostly Cloudy 61 16 46 8 59 59 VRB 3 6 30.03 1017 10 16 0.00 0.00
11:53 am 11:53 Mostly Cloudy 59 15 46 7.8 62 62 Calm 30.04 1017 10 16 0.00 0.00
12:53 pm 12:53 Partly Cloudy 58 14.4 50 10 75 75 NE 9 15 30.02 1017 10 16 0.00 0.00
1:19 pm 13:19 Mostly Cloudy 58 14.4 49 9.4 72 72 VRB 6 9 30.00 1016 10 16 0.00 0.00
1:53 pm 13:53 Mostly Cloudy 59 15 49 9.4 69 69 VRB 6 9 30.00 1016 10 16 0.00 0.00
2:53 pm 14:53 Mostly Cloudy 57 13.9 48 8.9 72 72 VRB 7 11 29.99 1016 10 16 0.00 0.00
3:13 pm 15:13 Partly Cloudy 59 15 48 8.9 67 67 undefined N/A 29.98 1015 10 16 0.00 0.00
3:53 pm 15:53 Mostly Sunny 59 15 47 8.3 64 64 VRB 7 11 29.99 1016 10 16 0.00 0.00
4:53 pm 16:53 Sunny 58 14.4 47 8.3 67 67 VRB 7 11 30.00 1016 10 16 0.00 0.00
5:53 pm 17:53 Sunny 55 12.8 46 7.8 72 72 VRB 7 11 30.01 1016 10 16 0.00 0.00
6:53 pm 18:53 Clear 52 11.1 46 7.8 80 80 VRB 7 11 30.04 1017 10 16 0.00 0.00
7:53 pm 19:53 Clear 49 9.4 45 7.2 86 86 VRB 3 6 30.06 1018 10 16 0.00 0.00
8:46 pm 20:46 Mostly Clear 48 8.9 45 7.2 89 89 Calm 30.08 1018 10 16 0.00 0.00
8:53 pm 20:53 Partly Cloudy 48 8.9 45 7.2 89 89 E 5 7 30.08 1019 10 16 0.00 0.00
9:01 pm 21:01 Mostly Cloudy 48 8.9 45 7.2 89 89 ESE 7 11 30.08 1018 10 16 0.00 0.00
9:53 pm 21:53 Cloudy 48 8.9 46 7.8 93 93 VRB 5 7 30.09 1019 10 16 0.00 0.00
10:53 pm 22:53 Cloudy 48 8.9 45 7.2 89 89 E 3 6 30.09 1019 9 14 0.00 0.00
11:53 pm 23:53 Cloudy 47 8.3 45 7.2 93 93 VRB 5 7 30.09 1019 7 11 0.00 0.00

Powered by AerisWeather